Location: Arthez
(43.0833°N, 0.2500°W)
Time: 00:43:25
(UTC+00:00)

NOSS 3-1 (A) - Pass Details

Date: 06 June 2022
Orbit: 711 x 1501 km, 63.4° (Epoch: 21 May)

Event Time Altitude Azimuth Distance (km) Brightness Sun altitude
Rises 22:02:40 0° 321° (NW) 3,981 8.3 -18.9°
Reaches altitude 10° 22:05:12 10° 319° (NW) 3,122 7.3 -19.1°
Maximum altitude 22:12:49 68° 239° (WSW) 1,435 4.3 -19.7°
Enters shadow 22:17:38 30° 166° (SSE) 2,337 4.9 -20.1°
